Flag for Brazil Weather past 2 weeks in Fortaleza, Ceará, Brazil

Now
81 °F

Clear.


Feels Like: 85 °F
Forecast: N/A
Wind: 7 mph from East

Location: Fortaleza Aeropor-To

Current Time: Mar 31, 2015 at 7:58:36 PM

Latest Report: Mar 31, 2015 at 7:00 PM


Visibility: 10 mi

Pressure: 29.86 "Hg

Humidity: 79%

Dew point: 73 °F

Location of FortalezaLocation

Historic Weather in Fortaleza — Graph

°F

Fortaleza temperature yesterday

Maximum temperature yesterday: 82 °F (at 8:00 AM)
Minimum temperature yesterday: 75 °F (at 10:00 AM)
Average temperature yesterday: 80 °F

Past Weeks' High & Low Weather Summary

 TemperatureHumidityPressure
High88 °F (Mar 20, 3:00 PM)100% (Mar 19, 11:00 PM)30.01 "Hg (Mar 19, 11:00 PM)
Low73 °F (Mar 19, 11:00 PM)55% (Mar 20, 3:00 PM)29.74 "Hg (Mar 19, 5:00 PM)
Average80 °F76%29.89 "Hg
* Reported Mar 16 6:00 PM — Mar 31 6:00 PM, Fortaleza, Weather by CustomWeather, © 2015

Note: Actual official high and low records may vary slightly from our data, if they occured in-between our weather recording intervals... More about our weather records

Advertising

Fortaleza weather history for previous 24 hours

 ConditionsComfort  
Time TempWeatherWind HumidityBarometerVisibility
6:00 PM
Tue, Mar 31
81 °FPassing clouds.6 mph74%29.83 "HgN/A
5:00 PM82 °FPartly sunny.7 mph70%29.83 "HgN/A
4:00 PM82 °FSunny.9 mph66%29.83 "Hg10 mi
3:00 PM84 °FScattered clouds.9 mph62%29.83 "HgN/A
2:00 PM84 °FScattered clouds.14 mph58%29.83 "HgN/A
1:00 PM82 °FScattered clouds.9 mph74%29.86 "HgN/A
12:00 PM79 °FLight rain. Broken clouds.6 mph89%29.92 "Hg3 mi
11:00 AM75 °FRain. Broken clouds.18 mph94%29.92 "Hg1 mi
10:00 AM84 °FPartly sunny.10 mph70%29.92 "HgN/A
9:00 AM81 °FPartly sunny.6 mph79%29.95 "HgN/A
8:00 AM79 °FPartly sunny.6 mph84%29.92 "HgN/A
7:00 AM79 °FScattered clouds.5 mph89%29.89 "HgN/A
6:00 AM77 °FThunderstorms. Scattered clouds.7 mph94%N/A3 mi
5:00 AM77 °FLight rain. Passing clouds.2 mph94%29.86 "Hg3 mi
4:00 AM77 °FPassing clouds.2 mph94%29.86 "HgN/A
3:00 AM77 °FPassing clouds.No wind94%29.86 "HgN/A
2:00 AM77 °FPassing clouds.2 mph94%29.86 "HgN/A
1:00 AM77 °FPassing clouds.No wind94%29.89 "HgN/A
12:00 AM77 °FPassing clouds.2 mph94%29.89 "HgN/A
11:00 PM
Mon, Mar 30
79 °FPassing clouds.No wind89%29.92 "HgN/A
10:00 PM79 °FPassing clouds.No wind84%29.92 "HgN/A
9:00 PM81 °FPassing clouds.3 mph79%29.92 "HgN/A
8:00 PM81 °FPassing clouds.3 mph79%29.89 "HgN/A
7:00 PM81 °FPassing clouds.3 mph79%29.89 "HgN/A
Weather by CustomWeather, © 2015

See weather overviewHow to use our weather pages